{"data":{"norad_id":66812,"epoch":"2026-05-25T02:12:58.787712Z","epoch_age_seconds":60386,"freshness":"FRESH","line1":"1 66812U 25278X   26145.09234708  .00013937  00000+0  51477-3 0  9997","line2":"2 66812  43.0033  42.9025 0001399 268.1696  91.8996 15.27595364 26894","mean_motion":15.275953640000001,"eccentricity":0.0001399,"inclination_deg":43.0033,"raan_deg":42.9025,"arg_perigee_deg":268.1696,"mean_anomaly_deg":91.8996,"bstar":0.00051477,"rev_number":2689,"period_min":94.265800612891,"perigee_km":482.04321758333,"apogee_km":483.96296458081,"semimajor_km":6861.1400910821,"source":"CELESTRAK","updated_at":"2026-05-25T13:38:21.331455Z"}}